Flag for India Weather past 2 weeks in Nashik, Maharashtra, India

82 °F

Passing clouds.

Feels Like: 91 °F
Forecast: 65 / 88 °F
Wind: No wind

Location: Mumbai / Santacruz

Current Time: Nov 27, 2015 at 5:14:31 AM

Latest Report: Nov 27, 2015 at 4:30 AM

Visibility: 2 mi

Pressure: 29.83 "Hg (27.88 "Hg at 595m altitude)

Humidity: 84%

Dew point: 77 °F

Location of NashikLocation

Historic Weather in Nashik — Graph


Nashik temperature yesterday

Maximum temperature yesterday: 93 °F (at 12:30 PM)
Minimum temperature yesterday: 82 °F (at 4:00 AM)
Average temperature yesterday: 87 °F

Past Weeks' High & Low Weather Summary

High99 °F (Nov 20, 3:00 PM)84% (Nov 22, 10:00 PM)29.98 "Hg (Nov 22, 10:00 PM)
Low75 °F (Nov 18, 6:30 AM)19% (Nov 19, 3:30 PM)29.74 "Hg (Nov 15, 3:30 PM)
Average86 °F52%29.85 "Hg
* Reported Nov 12 4:40 AM — Nov 27 4:30 AM, Nashik, Weather by CustomWeather, © 2015

Note: Actual official high and low records may vary slightly from our data, if they occured in-between our weather recording intervals... More about our weather records


Nashik weather history for previous 24 hours

Time TempWeatherWind HumidityBarometerVisibility
4:30 AM
Fri, Nov 27
82 °FPassing clouds.No wind84%29.83 "Hg1 mi
3:30 AM82 °FPassing clouds.No wind84%29.83 "Hg1 mi
3:00 AM82 °FPassing clouds.5 mph84%29.83 "Hg1 mi
2:30 AM82 °FPassing clouds.5 mph84%29.83 "Hg1 mi
2:00 AM82 °FPassing clouds.5 mph84%29.83 "Hg1 mi
1:30 AM84 °FPassing clouds.No wind70%29.86 "Hg2 mi
1:00 AM84 °FPassing clouds.No wind70%29.86 "Hg2 mi
12:30 AM84 °FPassing clouds.No wind70%29.86 "Hg2 mi
12:00 AM86 °FPassing clouds.No wind62%29.86 "Hg2 mi
11:30 PM
Thu, Nov 26
86 °FPassing clouds.No wind62%29.89 "Hg2 mi
11:00 PM86 °FPassing clouds.No wind59%29.89 "Hg2 mi
10:30 PM88 °FPassing clouds.3 mph55%29.89 "Hg2 mi
10:00 PM88 °FPassing clouds.5 mph59%29.89 "Hg2 mi
9:30 PM88 °FPassing clouds.No wind62%29.89 "Hg2 mi
9:00 PM88 °FPassing clouds.No wind59%29.89 "Hg2 mi
8:30 PM88 °FPassing clouds.3 mph62%29.89 "Hg2 mi
8:00 PM88 °FPassing clouds.3 mph59%29.86 "Hg2 mi
7:30 PM88 °FPassing clouds.5 mph62%29.86 "Hg1 mi
7:00 PM88 °FPassing clouds.5 mph59%29.86 "Hg1 mi
6:30 PM88 °FPassing clouds.6 mph59%29.83 "Hg1 mi
6:00 PM90 °FPartly sunny.5 mph55%29.83 "Hg1 mi
5:30 PM88 °FScattered clouds.9 mph59%29.83 "Hg2 mi
5:00 PM91 °FPassing clouds.9 mph52%29.83 "Hg2 mi
4:30 PM90 °FPassing clouds.8 mph55%29.83 "Hg2 mi
4:00 PM90 °FPassing clouds.9 mph55%29.83 "Hg2 mi
3:30 PM91 °FPassing clouds.10 mph52%29.83 "Hg2 mi
3:00 PM91 °FPassing clouds.8 mph56%29.83 "Hg2 mi
2:30 PM91 °FPassing clouds.9 mph52%29.83 "Hg2 mi
2:00 PM91 °FPassing clouds.7 mph52%29.83 "Hg1 mi
1:30 PM91 °FPassing clouds.10 mph56%29.86 "Hg1 mi
1:00 PM91 °FClear.9 mph56%29.86 "Hg2 mi
12:30 PM93 °FClear.3 mph41%29.89 "Hg2 mi
12:00 PM91 °FClear.6 mph41%29.89 "Hg1 mi
11:30 AM91 °FClear.3 mph46%29.89 "Hg1 mi
11:00 AM90 °FClear.5 mph49%29.92 "Hg1 mi
10:30 AM88 °FClear.5 mph55%29.92 "Hg1 mi
10:00 AM88 °FHaze.3 mph59%29.92 "Hg1 mi
9:30 AM86 °FHaze.6 mph62%29.92 "Hg1 mi
8:30 AM82 °FHaze.6 mph70%29.92 "Hg1 mi
8:00 AM82 °FHaze.6 mph74%29.89 "Hg1 mi
7:30 AM82 °FScattered clouds.No wind74%29.89 "Hg1 mi
7:00 AM82 °FPassing clouds.No wind74%29.86 "Hg1 mi
6:30 AM82 °FPassing clouds.No wind74%29.86 "Hg1 mi
6:00 AM82 °FPassing clouds.5 mph74%29.86 "Hg1 mi
5:00 AM82 °FPassing clouds.No wind74%29.86 "Hg1 mi
Weather by CustomWeather, © 2015

See weather overviewHow to use our weather pages